Regional Weather Roundup
Issued by NWS Goodland, KS

Home | Current Version | Previous Version | Graphics & Text | Print | Product List | Glossary On
Versions: 1 2 3 4 5 6 7 8 9 10 11 12 13 14 15 16 17 18 19 20 21 22 23 24 25 26 27 28 29 30 31 32 33 34 35 36 37 38 39 40 41 42 43 44 45 46 47 48 49 50
000
ASUS43 KGLD 250108
RWRGLD

GOODLAND FORECAST AREA HOURLY WEATHER ROUNDUP
NATIONAL WEATHER SERVICE GOODLAND KS
700 PM MDT FRI MAR 24 2017

...OFFICIAL OBSERVATIONS...

CITY           SKY/WX    TMP DP  RH WIND       PRES   REMARKS
GOODLAND KS    CLOUDY    39  38  96 N18       30.06R
HILL CITY KS   CLOUDY    43  39  86 N18G29    30.02R
IMPERIAL NEB   CLOUDY    44  36  73 N10       30.09F
MCCOOK NEB     CLOUDY    42  40  92 N21       30.05R
AKRON CO       CLEAR     43  37  79 SE7       30.12S
BURLINGTON CO  MIX PCPN  37  36  96 N25G37    30.09R
LIMON CO       CLEAR     38  34  85 N8        30.12S
$$

...UNOFFICIAL OBSERVATIONS...

CITY           SKY/WX    TMP DP  RH WIND       PRES   REMARKS
LENORA KS        N/A     41  32  70 N12G18      N/A
NORTON KS      CLOUDY    39  36  87 N17       30.00
SHARON SPRINGS   N/A     40  38  92 N18G29      N/A
TRENTON NEB      N/A     41  32  70 N12         N/A
YUMA CO        FAIR      37  36  93 N3        30.12S
$$



USA.gov is the U.S. government's official web portal to all federal, state and local government web resources and services.